Regional Weather Roundup
Issued by NWS

Home | Current Version | Previous Version | Text Only | Print | Product List | Glossary Off
Versions: 1 2 3 4 5 6 7 8 9 10 11 12 13 14 15 16 17 18 19 20 21 22 23 24 25 26 27 28 29 30 31 32 33 34 35 36 37 38 39 40 41 42 43 44 45 46 47 48 49 50

000
ASUS43 KMKX 041400
RWRWI

WISCONSIN REGIONAL WEATHER ROUNDUP
NATIONAL WEATHER SERVICE MILWAUKEE/SULLIVAN WI
900 AM CDT MON MAY 04 2015

NOTE: "FAIR" INDICATES FEW OR NO CLOUDS BELOW 12,000 FEET WITH NO
SIGNIFICANT WEATHER AND/OR OBSTRUCTIONS TO VISIBILITY.

WIZ001-002-006>008-014>016-023>028-041500-
NORTHWEST WISCONSIN

CITY           SKY/WX    TMP DP  RH WIND       PRES   REMARKS
SUPERIOR ARPT  SUNNY     53  40  60 SW3       30.17R
ASHLAND        SUNNY     56  40  55 NW6       30.15R
HAYWARD        SUNNY     56  35  45 N7        30.15R
SIREN          SUNNY     55  36  49 N6        30.16S
CUMBERLAND     SUNNY     54  36  50 N10       30.14S
RICE LAKE      SUNNY     55  39  55 N10       30.15S
CHETEK         SUNNY     54  41  60 NW5       30.13S
LADYSMITH      SUNNY     53  40  60 N13G18    30.14R
EAU CLAIRE     SUNNY     57  40  52 NE8       30.12R
MENOMONIE      SUNNY     55  39  54 N8        30.12R
NEW RICHMOND   SUNNY     55  40  56 NE10      30.14S
OSCEOLA        SUNNY     55  40  57 N8        30.17S
$$

WIZ003>005-009-010-017-018-041500-
NORTH CENTRAL WISCONSIN

CITY           SKY/WX    TMP DP  RH WIND       PRES   REMARKS
MANITOWISH WTR SUNNY     52  36  54 N9        30.11R
ARBOR VITAE    SUNNY     55  40  57 N7        30.10R
WOODRUFF       SUNNY     55  40  57 N7        30.10R
RHINELANDER    MOSUNNY   54  39  57 N7        30.10R
EAGLE RIVER    SUNNY     53  36  53 N8        30.09R
LAND O LAKES   SUNNY     54  36  51 N8        30.10R
PHILLIPS       SUNNY     51  39  63 N9        30.11R
TOMAHAWK       MOSUNNY   52  41  66 N8        30.11R
MEDFORD        SUNNY     52  42  68 N9        30.09R
MERRILL        MOSUNNY   55  42  63 N9        30.09R
$$

WIZ029-030-035-036-043>047-041500-
CENTRAL WISCONSIN

CITY           SKY/WX    TMP DP  RH WIND       PRES   REMARKS
WAUSAU         MOSUNNY   57  41  55 N12       30.07R
MOSINEE        NOT AVBL
MARSHFIELD     MOSUNNY   60  41  49 N12       30.08R
STEVENS POINT  PTSUNNY   55  47  75 N6        30.07R
WAUPACA        PTSUNNY   61  53  74 N9        30.05R
WAUTOMA        NOT AVBL
WISC RAPIDS    MOSUNNY   59  44  57 NE14      30.08R
CAMP DOUGLAS   NOT AVBL
$$

WIZ011>013-019>022-031-037>040-048>050-041500-
NORTHEAST WISCONSIN

CITY           SKY/WX    TMP DP  RH WIND       PRES   REMARKS
ANTIGO         PTSUNNY   55  44  66 N10       30.08R
SHAWANO        PTSUNNY   61  48  62 N8        30.05R
OCONTO         PTSUNNY   61  45  56 N7        30.03R
STURGEON BAY   PTSUNNY   59  43  55 N12       30.05R
GREEN BAY      PTSUNNY   63  49  60 N13       30.04R
MANITOWOC      NOT AVBL
APPLETON       PTSUNNY   61  55  82 N13       30.04R
CLINTONVILLE   PTSUNNY   59  48  67 N7        30.04R
OSHKOSH        CLOUDY    62  55  77 N10       30.03R
$$

WIZ032>034-041-042-053>061-041500-
SOUTHWEST WISCONSIN

CITY           SKY/WX    TMP DP  RH WIND       PRES   REMARKS
LA CROSSE      MOSUNNY   62  45  53 N12       30.09R
SPARTA         PTSUNNY   57  46  67 N7        30.09R
VIROQUA        MOSUNNY   58  55  87 N10       30.07R
BOSCOBEL       CLOUDY    62  58  86 CALM      30.07R
PRAIRIE DU CHI CLOUDY    59  57  93 NW5       30.07R
PLATTEVILLE    CLOUDY    59  57  93 CALM      30.07R
$$

WIZ056-057-062-063-064-067-068-041500-
SOUTH CENTRAL WISCONSIN

CITY           SKY/WX    TMP DP  RH WIND       PRES   REMARKS
REEDSBURG      CLOUDY    60  58  92 NW5       30.04R
BARABOO/DELLS  NOT AVBL
LONE ROCK      NOT AVBL
MINERAL POINT  CLOUDY    61  57  88 CALM      30.06R
MADISON        CLOUDY    61  56  83 N9        30.05R
MIDDLETON      CLOUDY    63  58  86 N8        30.05R
WATERTOWN      CLOUDY    60  60 100 NW9G17    30.03R
MONROE         CLOUDY    59  55  88 CALM      30.06R
JANESVILLE     PTSUNNY   61  57  88 N7        30.05R
$$

WIZ051-052-058>065-066-070>072-041500-
SOUTHEAST WISCONSIN

CITY           SKY/WX    TMP DP  RH WIND       PRES   REMARKS
MILWAUKEE      CLOUDY    64  54  69 NW8       30.02R
WAUKESHA       PTSUNNY   61  55  82 NW7       30.04R
MILWAUKEE/TIMM SUNNY     63  54  72 N10       30.03R
RACINE         CLOUDY    64  55  72 W6        30.04R
BURLINGTON     CLOUDY    58  56  91 CALM      30.04R
KENOSHA        CLOUDY    62  58  86 W5        30.04R
FOND DU LAC    CLOUDY    62  56  80 N9        30.03R
SHEBOYGAN      CLOUDY    62  58  86 N12       30.02R
WEST BEND      CLOUDY    59  54  82 NW10      30.03R
JUNEAU         CLOUDY    60  57  90 NW8       30.04S
$$

LSZ147-162-041500-
LAKE SUPERIOR

STATION/POSITION TIME  TEMP    WIND        PRES    WAVE
                       AIR SEA DIR/SP/G            HT/PER
                 (UTC) (F)     (DEG/KT/KT) (MB)    (FT/S)
W MID LAKE BUOY  1250   39 35  250/ 10/ 10 1019.6R   1
DEVILS ISLAND    1300   44     250/ 10/ 12 1020.5R
PORT WING        1300   49     190/  4/  6 1021.0R
SAXON HARBOR     1300   51        CALM     1020.0R
$$

LMZ867-665-643>646-041500-
LAKE MICHIGAN

STATION/POSITION TIME  TEMP    WIND        PRES    WAVE
                       AIR SEA DIR/SP/G            HT/PER
                 (UTC) (F)     (DEG/KT/KT) (MB)    (FT/S)
CHAMBERS ISLAND  1300   58     300/  8/ 10 1016.3R
NORTHPORT PIER   1300   56     300/ 12/ 17 1015.9R
SISTER BAY       1302   52     360/ 11/ 13   N/A
KEWAUNEE LAKESHO 1300   62     330/  7/ 12 1015.1R
SHEBOYGAN LAKESH 1300   59     330/ 10/ 11 1016.3R
PORT WASHINGTON  1300   61     300/  7/ 13 1016.6R
ATWATER BUOY     1300   55     300/  8/ 12 1016.9R
MILWAUKEE LAKESH 1300   62     310/ 10/ 15   N/A
KENOSHA   LAKESH 1300   62     290/  7/  9 1016.6R
$$

TC  - TEMPERATURE IN CELSIUS
VSB - VISIBILITY IN STATUTE MILES
WCI - WIND CHILL INDEX
HX  - HEAT INDEX



USA.gov is the U.S. government's official web portal to all federal, state and local government web resources and services.